Flag for Russia Weather past 2 weeks in Kaliningrad, Russia

Now
64 °F

Scattered clouds.


Feels Like: 64 °F
Forecast: 54 / 67 °F
Wind: 8 mph from Northwest

Location: Kaliningrad/Khrabrovo Airport

Current Time: Sep 2, 2015 at 5:26:17 PM

Latest Report: Sep 2, 2015 at 4:30 PM


Visibility: N/A

Pressure: 29.92 "Hg

Humidity: 68%

Dew point: 54 °F

Location of KaliningradLocation

Historic Weather in Kaliningrad — Graph

°F

Kaliningrad temperature yesterday

Maximum temperature yesterday: 86 °F (at 12:00 PM)
Minimum temperature yesterday: 61 °F (at 5:30 AM)
Average temperature yesterday: 70 °F

Past Weeks' High & Low Weather Summary

 TemperatureHumidityPressure
High86 °F (Sep 1, 12:00 PM)100% (Aug 26, 5:00 AM)30.42 "Hg (Aug 26, 5:00 AM)
Low45 °F (Aug 30, 4:30 AM)28% (Aug 24, 1:00 PM)29.65 "Hg (Sep 1, 11:00 AM)
Average65 °F69%30.08 "Hg
* Reported Aug 18 4:00 PM — Sep 2 4:00 PM, Kaliningrad, Weather by CustomWeather, © 2015

Note: Actual official high and low records may vary slightly from our data, if they occured in-between our weather recording intervals... More about our weather records

Advertising

Kaliningrad weather history for previous 24 hours

 ConditionsComfort  
Time TempWeatherWind HumidityBarometerVisibility
4:00 PM
Wed, Sep 2
64 °FScattered clouds.10 mph68%29.92 "HgN/A
3:30 PM64 °FScattered clouds.10 mph68%29.92 "HgN/A
3:00 PM64 °FScattered clouds.8 mph73%29.89 "HgN/A
2:30 PM63 °FScattered clouds.10 mph73%29.89 "HgN/A
2:00 PM63 °FScattered clouds.8 mph73%29.89 "HgN/A
1:30 PM63 °FSprinkles. Scattered clouds.8 mph68%29.89 "HgN/A
1:00 PM63 °FScattered clouds.10 mph73%29.86 "HgN/A
12:30 PM61 °FPartly sunny.8 mph88%29.86 "HgN/A
12:00 PM61 °FSprinkles. Partly sunny.8 mph88%29.86 "HgN/A
11:30 AM63 °FPartly sunny.10 mph77%29.86 "HgN/A
11:00 AM63 °FPartly sunny.10 mph77%29.83 "HgN/A
10:00 AM63 °FMore clouds than sun.8 mph88%29.83 "HgN/A
9:30 AM63 °FSprinkles. More clouds than sun.6 mph88%29.83 "Hg5 mi
9:00 AM63 °FSprinkles. Fog.10 mph94%29.80 "Hg3 mi
8:30 AM63 °FSprinkles. More clouds than sun.6 mph94%29.77 "HgN/A
8:00 AM63 °FSprinkles. Mostly cloudy.8 mph94%29.77 "HgN/A
7:30 AM63 °FSprinkles. Passing clouds.3 mph94%29.77 "Hg5 mi
7:00 AM64 °FSprinkles. Mostly cloudy.6 mph94%29.77 "Hg5 mi
6:30 AM64 °FSprinkles. Mostly cloudy.6 mph94%29.77 "Hg4 mi
5:30 AM64 °FSprinkles. Passing clouds.8 mph94%29.74 "Hg4 mi
5:00 AM64 °FPassing clouds.3 mph94%29.74 "Hg4 mi
4:30 AM64 °FSprinkles. Passing clouds.6 mph94%29.74 "Hg4 mi
4:00 AM64 °FSprinkles. Passing clouds.3 mph94%29.74 "Hg4 mi
3:00 AM64 °FPassing clouds.10 mph94%29.77 "HgN/A
2:00 AM61 °FFog.1 mph94%29.71 "Hg3 mi
1:00 AM61 °FFog.3 mph94%29.71 "Hg1 mi
12:30 AM61 °FFog.1 mph94%29.71 "Hg2 mi
11:30 PM
Tue, Sep 1
63 °FClear.1 mph88%29.71 "Hg4 mi
11:00 PM64 °FClear.1 mph88%29.71 "Hg5 mi
10:00 PM64 °FClear.1 mph94%29.71 "Hg6 mi
9:30 PM64 °FClear.3 mph94%29.71 "Hg6 mi
9:00 PM64 °FClear.3 mph94%29.71 "Hg6 mi
8:30 PM66 °FClear.3 mph88%29.71 "Hg5 mi
8:00 PM66 °FPassing clouds.3 mph88%29.71 "HgN/A
7:30 PM68 °FPassing clouds.3 mph83%29.71 "HgN/A
7:00 PM68 °FPassing clouds.6 mph88%29.68 "HgN/A
6:00 PM72 °FPassing clouds.10 mph78%29.71 "HgN/A
5:00 PM73 °FPassing clouds.6 mph78%29.68 "HgN/A
Weather by CustomWeather, © 2015

See weather overviewHow to use our weather pages